Weather Roundup
Issued by NWS

Home | Current Version | Previous Version | Text Only | Print | Product List | Glossary On
Versions: 1 2 3 4 5 6 7 8 9 10 11 12 13 14 15 16 17 18 19 20 21 22 23 24 25 26 27 28 29 30 31 32 33 34 35 36 37 38 39 40 41 42 43 44 45 46 47 48 49 50
375
NZUS93 KARX 210959
HRRWXR

CURRENT HOURLY OBSERVATIONS ACROSS
MUCH OF THE UPPER MISSISSIPPI VALLEY
NATIONAL WEATHER SERVICE LA CROSSE WI
400 AM CST TUE NOV 21 2017


...SOUTHEAST MINNESOTA...


CITY           SKY/WX    TMP DP  RH WIND       PRES   REMARKS
ROCHESTER      CLOUDY    32  18  56 W20G32    29.66R WCI  20
ROCHESTER/MAYO FAIR      34  17  49 W22G29    29.65R WCI  22
WINONA         CLEAR     37  21  52 W14G24    29.63R WCI  29
AUSTIN         CLOUDY    36  10  35 NW23G37   29.69R WCI  24
ALBERT LEA     CLOUDY    34   7  32 NW14G21   29.72R WCI  24
DODGE CENTER   CLOUDY    32  16  51 W18G30    29.68R WCI  20
PRESTON        CLOUDY    34  17  50 NW24G33   29.66R WCI  21
OWATONNA       CLOUDY    32  16  51 W22G31    29.72R WCI  19
FARIBAULT      PTCLDY    30  14  51 W21G36    29.71R WCI  17
$$

...ELSEWHERE IN MINNESOTA...


CITY           SKY/WX    TMP DP  RH WIND       PRES   REMARKS
MINNEAPOLIS    MOCLDY    30  19  63 W20G30    29.68R WCI  17
INTNL FALLS    LGT SNOW  19  12  74 NW23G33   29.59R WCI   2
DULUTH         FLURRIES  23  17  78 NW20      29.49R WCI   8
RED WING       CLEAR     36  12  38 W20G28    29.64R WCI  25
REDWOOD FALLS  CLOUDY    28  11  48 NW16G31   29.81R WCI  16
MANKATO        CLOUDY    30  16  56 NW28G36   29.76R WCI  15
WORTHINGTON    CLOUDY    35  17  47 NW24G32   29.81R WCI  23
FAIRMONT       CLOUDY    36  15  42 NW17G26   29.78R WCI  26
$$

...SOUTHWEST WISCONSIN...


CITY           SKY/WX    TMP DP  RH WIND       PRES   REMARKS
LA CROSSE      PTCLDY    41  21  44 NW13G22   29.61R
PRAIRIE DU CHI PTCLDY    40  27  59 W6        29.64S
BOSCOBEL       PTCLDY    43  28  55 SW8       29.62S
LONE ROCK      CLEAR     40  30  67 W10       29.59S WCI  33
PLATTEVILLE    CLEAR     38  31  76 W8        29.63R WCI  32
FORT MC COY    CLEAR     40  28  62 SW5       29.56S
CAMP DOUGLAS   CLEAR    N/A N/A N/A W17       29.54R
MAUSTON-NEW LI SUNNY     43  28  54 W10G18    29.53R
VIROQUA        FAIR      38  28  68 W10G16    29.58S WCI  31
WIS DELLS      CLEAR     42  28  56 W12G18    29.55R
$$

...ELSEWHERE IN WISCONSIN...


CITY           SKY/WX    TMP DP  RH WIND       PRES   REMARKS
MILWAUKEE      MOCLDY    43  32  65 SW13      29.58R
MADISON        CLEAR     43  32  65 SW8       29.57S
GREEN BAY      CLEAR     42  31  64 SW9       29.44S
EAU CLAIRE     NOT AVBL
BLACK RVR FLS  FAIR      40  22  48 W12G22    29.55R WCI  33
MEDFORD        CLEAR     34  22  62 W22G31    29.45R WCI  22
WAUSAU         CLEAR     37  25  61 W17G24    29.45R WCI  27
WIS RAPIDS     CLEAR     40  26  57 W17G28    29.51R WCI  31
MARSHFIELD     CLEAR     36  24  62 W15G24    29.48R WCI  27
RICE LAKE      MOCLDY    33  23  66 W17G26    29.55R WCI  22
$$

...NORTHEAST IOWA...


CITY           SKY/WX    TMP DP  RH WIND       PRES   REMARKS
WATERLOO       CLOUDY    39  27  62 W12       29.70R WCI  32
DUBUQUE        PTCLDY    39  30  70 W9        29.65R WCI  33
DECORAH        CLOUDY    37  25  60 W12G21    29.63S WCI  30
MASON CITY     CLOUDY    36  14  40 NW25G35   29.73R WCI  24
CHARLES CITY   CLOUDY    37  21  52 NW20      29.70R WCI  27
OELWEIN        CLOUDY    39  28  65 NW15G22   29.67S WCI  31
$$

...ELSEWHERE IN IOWA...


CITY           SKY/WX    TMP DP  RH WIND       PRES   REMARKS
DES MOINES     CLOUDY    45  26  47 N15       29.75R
IOWA CITY      PTCLDY    41  31  67 NW10      29.70S
FORT DODGE     CLOUDY    39  23  52 VRB7      29.79R WCI  34
MARSHALLTOWN   MOCLDY    40  28  62 NW13      29.73R WCI  32
CEDAR RAPIDS   PTCLDY    38  30  73 W8        29.68R WCI  32
$$

...NORTHERN ILLINOIS...


CITY           SKY/WX    TMP DP  RH WIND       PRES   REMARKS
CHICAGO-OHARE  CLOUDY    44  31  60 SW17G30   29.66R
CHICAGO-MIDWAY NOT AVBL
MOLINE         CLEAR     40  30  67 SW7       29.69R
ROCKFORD       MOCLDY    44  31  60 SW8       29.66R
PEORIA         CLEAR     38  31  76 S9        29.74S WCI  31
$$

NOTE: "FAIR" INDICATES FEW OR NO CLOUDS BELOW 12,000 FEET WITH NO
SIGNIFICANT WEATHER AND/OR OBSTRUCTIONS TO VISIBILITY. WIND
SPEEDS ARE IN MILES-PER-HOUR.




USA.gov is the U.S. government's official web portal to all federal, state and local government web resources and services.